Location: Normandy Village
(37.8755°N, 122.2655°W)
Time: 21:28:37
(UTC+00:00)

OAO 2 Rocket - Pass Details

Date: 22 September 2019
Orbit: 676 x 746 km, 35.0° (Epoch: 17 October)

Event Time Altitude Azimuth Distance (km) Brightness Sun altitude
Exits shadow 13:05:27 15° 259° (W) 1,801 4.8 -10.9°
Maximum altitude 13:09:28 63° 181° (S) 749 3.4 -10.1°
Drops below altitude 10° 13:14:19 10° 101° (E) 2,101 7.1 -9.2°
Sets 13:16:43 0° 98° (E) 3,018 8.4 -8.7°
